885  
ASUS44 KMOB 170112  
RWRMOB  
REGIONAL WEATHER ROUNDUP  
NATIONAL WEATHER SERVICE MOBILE AL  
800 PM CDT MON JUL 16 2018  
 
NOTE: "FAIR" INDICATES FEW OR NO CLOUDS BELOW 12,000 FEET WITH NO  
SIGNIFICANT WEATHER AND/OR S TO VISIBILITY
.  
 
* THESE STATIONS ARE PART OF THE UNIVERSITY OF SOUTH ALABAMA  
MESONET AND ARE NOT UNDER NWS OR FAA QUALITY CONTROL.
 
 
ALZ061>064-170200-  
COASTAL ALABAMA  
 
CITY SKY/WX TMP DP RH WIND PRES REMARKS
 
MOBILE REG APT MOCLDY 76 74 93 CALM 30.02F  
BROOKLEY FIELD FAIR 77 76 96 CALM 30.03R  
USA CAMPUS* NOT AVBL  
DOG RIVER* N/A 75 73 94 CALM N/A  
 
 
CITY SKY/WX TMP DP RH WIND PRES REMARKS
 
GULF SHORES FAIR 76 74 92 CALM 30.01S  
 

 
 
ALZ051>060-170200-  
INTERIOR SOUTHWEST AND SOUTH CENTRAL ALABAMA  
 
CITY SKY/WX TMP DP RH WIND PRES REMARKS
 
GREENVILLE FAIR 78 71 79 W6 30.01S  
EVERGREEN FAIR 76 73 91 CALM 30.01R  
ATMORE* N/A N/A N/A N/A NW3 30.74R  
ANDALUSIA/OPP FAIR 80 72 76 W8 30.02R  
ANDALUSIA* N/A 75 73 94 NW3 30.02S  
FLORALA APT FAIR 77 73 87 CALM 30.04R  
FLORALA* N/A 75 73 94 CALM 30.72R  
 

 
 
FLZ001>006-170200-  
WESTERN FLORIDA PANHANDLE  
 
CITY SKY/WX TMP DP RH WIND PRES REMARKS
 
PENSACOLA FAIR 78 73 84 NW5 30.00S  
NAS PENSACOLA MOCLDY 75 73 93 S5 30.00S  
MILTON MOCLDY 76 74 93 NW3 30.01S  
WHTNG S FIELD NOT AVBL  
 
 
CITY SKY/WX TMP DP RH WIND PRES REMARKS
 
JAY* N/A N/A N/A N/A CALM N/A  
DUKE FIELD PTCLDY 78 72 81 W3 30.01R  
CRESTVIEW FAIR 78 71 79 NW5 30.03R  
VALPARAISO MOCLDY 78 73 84 W3 30.01R  
DESTIN FAIR 81 71 71 NW3 30.01R  
 

 
 
MSZ076-079-170200-  
INTERIOR SOUTHEAST MISSISSIPPI  
 
CITY SKY/WX TMP DP RH WIND PRES REMARKS
 
LEAKESVILLE* NOT AVBL  
AGRICOLA* N/A 73 73 100 W2 30.01F  
 

 
 
MARINE OBSERVATIONS  
 
STATION/POSITION TIME TEMP WIND PRES WAVE
 
AIR SEA DIR/SP/G HT/PER  
(UTC) (F) (DEG/KT/KT) (MB) (FT/S)  
PETIT BOIS ISLND 0048 79 270/ 10/ 12 1017.2R  
GRAND BAY 2345 76 CALM 1017.0F  
KATRINA CUT 0030 79 320/ 8 1016.6R  
CEDAR POINT 0030 77 340/ 5 1016.3R  
E DAUPHIN ISLAND 0000 80 300/ 8/ 9 1016.2R  
MIDDLE BAY LIGHT 0030 79 300/ 7 1015.9R  
USCG MOBILE BAY 0048 78 89 310/ 2/ 3 1016.2F  
STATE DOCKS 0048 78 88 1016.2S  
WEEKS BAY 2345 78 1016.0S  
FORT MORGAN 0048 80 340/ 6/ 8 N/A  
12 S ORANGE BCH 0050 82 320/ 8/ 10 1016.3R 1/ 3  
PENSACOLA BAY 0048 79 87 CALM / 2 1016.1F  
64 S DAUPHIN ISL 0050 86 250/ 2/ 2 1017.0R 1/ 8  
 

 
 
SELECTED LOCATIONS ACROSS THE REGION  
 
CITY SKY/WX TMP DP RH WIND PRES REMARKS
 
NEW ORLEANS CLOUDY 83 78 85 S5 30.03R  
GULFPORT FAIR 75 73 93 VRB3 30.01S  
PASCAGOULA AP FAIR 76 74 93 CALM 30.02R  
PASCAGOULA* N/A 54 54 100 CALM 30.02R  
HATTIESBURG LGT RAIN 75 73 93 NW6 30.05R  
LAUREL LGT RAIN 74 73 97 VRB5 30.06R  
MERIDIAN FAIR 75 73 93 S6 30.03S  
JACKSON TSTM 74 72 93 SE9 30.03F  
MONTGOMERY FAIR 83 76 79 SW7 29.99R  
TROY TSTM 75 72 90 W12 30.04R  
ASHFORD* N/A 75 73 94 NW3 30.02S  
DOTHAN FAIR 81 72 74 S7 30.03R  
PANAMA CITY FAIR 83 75 77 S7 30.00S  
 

 
 
 
 
CLICK HERE TO GO TO PREVIOUS BULLETINS.

The Nexlab AL Page
The Nexlab FL Page
The Nexlab MS Page Main Text Page